Epoch = 2009 July 28.0 TT T = 2009 July 23.18056 TT Peri. = 48.23299 e = 0.3489598 Node = 245.83919 2000.0 q = 2.4993989 AU Incl. = 7.77159 a = 3.8390853 AU n = 0.13102749 P = 7.52 years
m1 = 15.5 + 5 log d + 10.0 log r